SCP
0 0 -0 0 -0 0 0 0 0 0 0 0 0 0 0 0 0 0 0 0 0 0 0 0 0 0 0 0 0 0 1 0 0 0 0 0 0 0 0 0 0 0 0
0 0 0 0 0 0 0 0 0 0 0 0 0 0 0 0 0 0 0 0 0 0 0 0 0 0 0 0 0 0 0 0 0 0 0 0 0 0 0 0 0 0 0
0 0 0 -0 0 0 0 0 0 0 0 0 0 0 0 0 0 0 0 0 0 0 0 0 0 0 0 0 1 1 1 1 1 0 0 0 0 0 0 0 0 0 0
0 0 0 0 0 0 0 0 0 0 0 0 0 0 0 0 0 0 0 0 0 0 0 0 0 0 0 0 1 1 1 1 1 0 1 0 0 0 0 0 0 0 0
0 0 0 0 0 0 0 0 0 0 0 0 0 0 0 0 0 0 0 0 0 0 0 0 0 0 0 0 0 1 1 1 0 1 0 0 0 0 0 0 0 0 0
0 0 0 0 0 0 0 0 0 0 0 0 0 0 0 0 0 0 0 0 0 0 0 0 0 0 0 0 0 0 1 1 1 0 0 0 0 0 0 0 0 0 0
0 0 0 0 0 0 0 0 0 0 0 0 0 0 0 0 0 0 0 0 0 0 0 0 0 0 0 0 1 1 1 1 1 0 0 0 0 0 0 0 0 0 0
0 0 0 0 0 0 0 0 0 0 0 0 0 0 0 0 0 0 0 0 0 0 0 0 0 0 0 0 0 1 0 0 0 0 0 0 0 0 0 0 0 0 0
0 0 0 0 0 0 0 0 0 0 0 0 0 0 0 0 0 0 0 0 0 0 0 0 0 0 0 0 0 0 0 0 0 0 0 0 0 0 0 0 0 0 0
0 0 0 0 0 0 0 0 0 0 0 0 0 0 0 0 0 0 0 0 0 0 0 0 0 0 0 0 0 0 0 0 0 0 0 0 0 0 0 0 0 0 0
0 0 0 0 0 0 0 0 0 0 0 0 0 0 0 0 0 0 0 0 0 0 0 0 0 0 0 0 0 0 0 0 0 1 0 0 0 0 0 0 0 0 0
0 0 0 0 0 0 0 0 0 0 0 0 0 0 0 0 0 0 0 0 0 0 0 0 0 0 0 0 0 0 0 0 0 0 0 0 0 0 0 0 0 0 0
0 0 0 0 0 0 0 0 0 0 0 0 0 0 0 0 0 0 0 0 0 0 0 0 0 0 0 0 0 1 0 0 0 0 0 0 1 0 0 0 0 0 0
0 0 0 0 0 0 0 0 0 0 0 0 0 0 0 0 0 0 0 0 0 0 0 0 0 0 0 0 0 1 1 0 0 0 0 0 0 0 0 0 0 0 0
0 0 0 0 0 0 0 0 0 0 0 0 0 0 0 0 0 0 0 0 0 0 0 0 0 0 0 -0 0 0 0 0 0 0 0 0 0 0 0 0 0 0 0
0 0 0 0 0 0 0 0 0 0 0 0 0 0 0 0 0 0 0 0 0 0 0 0 0 0 0 -0 0 0 0 0 0 0 0 0 0 0 0 0 0 0 0
0 0 0 0 0 0 0 0 0 0 0 0 0 0 0 0 0 0 0 0 0 0 0 0 0 0 -0 -0 0 0 0 0 0 0 0 0 0 0 0 0 0 0 0
0 0 0 0 0 0 0 0 0 0 0 0 0 0 0 0 0 0 0 0 -0 0 0 0 -0 -0 0 0 0 0 0 0 0 0 0 0 0 0 0 0 0 -0 -0
0 0 0 0 0 0 0 0 0 0 0 0 0 0 0 0 0 0 0 -0 -0 0 0 0 0 0 0 0 0 -0 0 0 0 0 0 0 0 0 0 0 0 0 -0
0 0 0 0 0 0 0 0 0 0 0 0 0 0 0 0 0 0 0 0 0 0 0 0 0 0 0 -0 0 0 0 0 0 0 0 0 0 0 0 0 0 0 0
0 0 0 0 0 0 0 0 0 0 0 0 0 0 0 0 0 0 0 0 -0 0 0 0 0 0 0 0 0 0 0 0 0 0 0 0 0 0 0 0 0 0 0
0 0 0 0 0 0 0 0 0 0 0 0 0 0 0 0 0 0 -0 -0 -0 0 -0 -0 0 0 0 0 0 0 0 0 0 0 0 0 0 0 0 0 0 0 0
0 0 0 0 0 0 0 0 0 0 0 0 0 0 0 0 -0 0 -0 -0 -0 -0 0 0 0 0 -0 0 0 0 0 0 0 0 0 0 0 0 0 0 0 0 0
0 0 0 0 0 0 0 0 0 0 0 0 0 0 0 -0 -0 0 0 -0 -0 0 0 -0 0 0 0 -0 0 0 0 0 0 0 0 0 0 0 0 0 0 0 0
0 0 0 0 0 0 0 0 0 0 0 0 0 0 -0 -0 -0 0 0 0 -0 -0 -0 0 -0 -0 0 -0 0 0 0 0 0 0 0 0 0 0 0 0 0 0 0
0 0 0 0 0 0 0 0 0 0 0 0 0 0 -0 -0 0 0 0 0 0 -0 0 0 -0 -0 0 -0 0 0 0 0 0 0 0 0 0 0 0 0 0 0 0
Wind_Speed_500mb
32 32 30 29 28 28 26 23 18 17 17 16 17 17 19 20 21 22 24 25 25 25 24 24 25 27 30 32 34 35 41 39 35 25 23 18 14 19 24 24 20 15 15
33 31 29 26 26 27 25 20 19 19 19 19 21 22 24 26 28 29 31 31 31 31 30 29 29 29 30 33 36 40 43 43 38 28 26 23 20 22 24 22 18 14 13
37 29 25 23 23 24 23 21 20 20 21 22 24 27 29 32 33 36 37 38 38 37 36 36 34 35 35 35 39 44 48 47 42 36 33 28 24 25 25 24 20 17 15
33 28 22 19 21 23 23 22 22 23 23 25 29 32 35 38 40 43 44 46 47 45 44 40 40 42 42 41 42 48 51 50 45 41 37 30 29 29 27 24 19 16 18
30 25 20 16 20 23 23 23 23 24 27 29 33 35 36 38 39 39 41 44 47 50 53 52 46 47 47 45 46 47 54 52 45 43 38 34 32 31 30 26 20 19 25
22 21 18 16 20 23 22 23 25 27 29 31 32 34 36 37 39 42 45 47 49 51 55 60 64 52 48 52 51 53 55 53 47 44 40 38 34 34 34 30 24 23 27
20 20 18 19 20 21 23 26 27 28 29 30 32 34 36 40 43 47 50 52 54 56 59 60 63 71 60 57 60 61 61 57 56 49 46 43 40 40 38 33 28 28 28
18 18 20 20 21 23 25 26 26 27 30 32 34 36 40 44 48 52 54 57 60 61 62 64 67 69 78 67 62 63 70 69 67 63 54 47 45 45 40 36 34 34 34
23 22 21 21 21 22 24 25 26 28 31 34 36 40 44 50 54 55 53 54 55 57 61 65 66 68 69 75 73 67 73 72 73 71 60 58 51 51 45 40 38 40 40
25 25 23 22 20 22 22 23 25 28 32 35 38 43 49 51 47 45 45 46 46 39 32 37 50 64 67 66 78 75 72 76 62 61 61 62 58 57 49 43 40 44 45
32 29 27 24 22 22 22 23 25 29 33 37 42 47 47 41 40 39 43 34 25 25 28 32 33 34 45 66 66 84 69 64 56 64 66 67 69 61 50 43 36 44 47
35 31 30 26 23 22 22 22 27 31 36 40 44 43 39 37 35 34 25 23 27 28 30 32 33 35 35 43 55 61 67 60 52 59 56 61 65 62 56 36 37 40 45
31 31 30 27 26 24 23 26 29 34 39 43 44 39 37 34 31 27 25 25 26 27 31 37 24 23 32 32 34 40 55 48 46 58 56 64 64 62 36 35 39 49 47
35 33 31 29 28 26 27 28 32 37 41 44 40 37 36 33 27 25 22 22 21 24 31 29 22 22 29 21 23 31 54 37 33 46 60 53 42 29 46 47 41 45 46
39 37 34 31 29 29 27 29 34 38 42 41 37 37 35 30 24 22 20 19 19 20 25 17 21 23 13 14 23 24 36 26 33 38 56 55 47 42 42 43 40 40 43
41 40 37 34 32 30 28 31 34 39 41 38 36 35 29 20 21 16 14 15 14 15 9 12 16 8 12 14 21 24 21 16 29 42 44 40 49 44 41 40 39 39 46
41 40 39 34 32 29 29 31 34 38 37 34 32 27 18 18 17 18 11 9 9 6 3 9 12 18 20 20 29 28 31 34 23 19 23 29 50 50 35 45 43 49 49
43 43 38 34 31 28 28 30 33 34 31 28 25 20 19 20 19 11 11 6 11 5 4 18 19 25 43 31 35 43 35 26 18 22 32 38 34 33 37 47 48 54 52
46 42 37 34 29 26 26 28 31 28 24 23 20 19 17 15 9 4 9 20 13 7 14 23 30 26 30 38 40 36 33 21 23 25 30 36 38 39 42 41 47 49 57
45 41 35 32 28 25 24 27 27 22 21 20 17 15 11 7 5 16 25 18 11 10 19 28 26 31 39 43 37 36 33 32 22 39 29 29 39 41 38 46 47 59 57
46 43 39 33 28 23 22 25 22 18 18 14 12 8 4 8 21 31 21 12 18 23 29 31 41 26 39 35 41 36 34 30 26 32 63 56 52 39 30 44 62 52 51
45 43 37 32 26 22 22 22 18 16 16 8 7 4 6 17 29 29 20 16 23 23 26 34 36 44 32 34 36 41 28 33 32 30 55 52 66 52 38 39 39 42 52
45 41 33 28 23 21 21 19 15 15 10 2 5 6 11 25 30 25 15 18 26 20 22 25 30 37 41 37 33 25 20 12 39 33 56 61 60 59 60 52 52 52 48
44 38 32 26 22 21 19 16 13 12 4 4 8 10 16 30 30 19 14 23 24 18 22 26 30 39 34 39 29 35 19 43 26 25 31 51 67 62 60 57 49 47 37
43 37 30 24 21 19 18 15 12 8 7 9 12 14 19 30 27 15 11 20 26 25 21 24 35 34 32 30 26 38 17 38 41 56 44 54 62 65 55 53 46 41 33
41 35 27 21 19 17 17 15 12 9 13 13 13 15 19 27 23 14 11 20 25 31 26 24 31 34 27 27 26 20 22 38 46 63 64 57 65 65 57 49 40 34 32
Wind_Direction_500mb
174 174 182 191 192 199 208 218 230 242 250 253 254 261 264 266 265 264 263 263 262 259 254 255 257 253 246 238 230 217 204 201 201 191 185 186 187 166 156 154 153 146 134
180 173 181 198 207 214 220 232 242 250 254 259 270 274 273 272 272 269 264 259 257 258 258 257 258 255 248 239 233 217 209 208 203 200 195 189 186 176 174 170 170 170 145
187 185 187 202 219 221 222 233 244 249 257 265 270 274 276 276 273 270 267 263 259 253 253 254 254 257 250 245 234 219 211 210 205 203 200 199 189 184 188 184 176 170 165
182 190 198 213 226 222 228 238 248 253 261 268 273 275 276 276 274 270 267 264 261 256 249 251 252 253 252 242 233 223 216 212 215 216 208 203 192 192 191 189 185 178 167
179 193 202 216 226 231 236 243 249 258 267 272 275 277 277 275 274 273 271 267 265 259 251 244 243 247 251 243 236 229 218 219 222 217 213 207 203 198 195 191 189 179 169
186 195 209 221 226 234 240 249 258 265 270 273 275 277 277 278 278 276 274 271 267 263 258 249 242 244 244 239 234 229 227 226 223 218 215 211 213 206 200 195 185 171 167
199 205 215 224 227 235 247 259 267 272 273 274 277 278 281 281 280 278 276 273 270 265 261 259 253 244 244 241 232 228 225 224 221 219 216 214 216 207 203 193 188 182 178
210 218 222 229 236 244 256 265 272 275 279 282 284 287 287 287 286 285 282 278 273 268 263 257 253 249 244 243 243 235 230 230 229 230 227 217 214 209 202 198 193 190 182
210 222 231 235 241 250 259 268 275 279 281 284 290 293 295 295 295 294 289 283 278 272 266 262 259 256 250 245 239 243 237 232 231 235 222 217 213 212 205 204 201 192 185
223 226 231 237 249 259 266 271 276 279 285 292 297 299 302 302 300 297 293 289 281 278 284 279 265 257 253 246 236 237 241 234 230 230 231 216 213 215 210 205 196 189 184
229 228 234 241 251 258 270 276 281 290 296 301 304 306 305 301 300 303 308 306 308 299 296 290 287 278 265 252 240 230 242 247 228 228 225 224 215 215 204 198 185 185 178
237 235 235 246 256 267 274 279 289 296 300 303 306 307 305 303 305 309 314 312 313 311 311 308 297 276 276 264 249 240 234 246 232 229 220 213 209 207 202 188 183 183 178
243 237 239 250 259 266 269 282 293 299 302 306 309 308 305 305 303 303 306 314 313 309 309 312 308 301 297 275 244 233 224 240 233 228 218 207 199 200 177 186 175 186 179
240 239 240 248 256 262 269 289 297 300 305 310 310 308 306 300 290 293 301 304 311 315 312 325 314 290 296 270 200 217 209 224 235 219 209 199 174 188 191 185 186 185 172
241 241 246 250 256 261 271 289 297 302 307 309 310 310 310 304 291 283 291 308 312 314 324 335 319 315 311 172 172 186 193 211 242 207 181 183 192 182 191 189 186 177 159
240 241 246 252 253 256 272 289 297 303 307 310 311 316 312 314 317 293 287 301 323 323 12 354 343 25 110 133 153 172 174 183 194 196 197 201 190 188 203 178 164 171 169
242 238 245 249 249 254 272 287 296 304 308 309 318 318 325 317 314 298 307 301 334 90 39 27 78 114 127 146 159 167 161 165 174 182 207 205 209 201 213 168 174 171 170
234 234 238 240 239 252 272 287 297 304 308 314 322 315 317 314 307 290 286 296 142 113 11 103 105 125 144 149 156 145 146 143 139 181 189 199 194 196 203 176 181 174 176
229 227 231 230 233 252 270 286 296 303 311 320 315 315 320 318 319 332 109 127 130 108 98 130 136 148 151 152 141 139 140 164 179 178 180 192 200 196 199 182 177 173 162
220 219 223 225 231 252 270 284 295 303 316 320 314 321 330 349 89 120 131 119 109 136 147 142 129 150 142 144 135 128 119 99 127 152 176 181 180 179 179 176 164 153 143
210 211 213 220 233 251 269 283 291 300 321 317 330 351 29 99 124 132 123 108 118 141 146 137 143 151 152 145 145 116 102 98 105 125 118 128 157 139 189 179 142 134 139
208 206 207 217 231 251 267 281 284 297 317 305 6 44 115 129 138 139 123 137 144 150 157 158 159 155 171 158 139 127 93 97 99 108 129 124 130 114 114 126 133 150 154
200 202 205 217 234 249 266 275 277 299 313 332 66 103 130 142 147 147 137 145 160 156 159 159 175 160 155 157 148 153 129 130 109 113 125 137 139 137 136 147 151 156 157
195 195 201 216 234 248 265 264 267 296 292 147 121 126 140 152 154 149 136 140 161 159 164 173 186 179 172 168 176 167 156 164 148 124 134 144 149 145 146 149 154 152 151
191 194 201 216 231 246 260 253 254 279 196 150 134 139 149 161 166 169 167 169 166 172 164 178 191 193 185 189 193 183 169 171 170 154 142 142 145 149 153 150 152 151 150
189 197 207 220 229 244 254 246 241 243 187 167 153 153 160 170 177 192 196 170 164 165 179 184 199 194 207 216 201 208 230 192 177 163 145 138 138 144 150 152 159 159 164
Wind_Speed_850mb
32 32 30 29 28 28 26 23 18 17 17 16 17 17 19 20 21 22 24 25 25 25 24 24 25 27 30 32 34 35 41 39 35 25 23 18 14 19 24 24 20 15 15
33 31 29 26 26 27 25 20 19 19 19 19 21 22 24 26 28 29 31 31 31 31 30 29 29 29 30 33 36 40 43 43 38 28 26 23 20 22 24 22 18 14 13
37 29 25 23 23 24 23 21 20 20 21 22 24 27 29 32 33 36 37 38 38 37 36 36 34 35 35 35 39 44 48 47 42 36 33 28 24 25 25 24 20 17 15
33 28 22 19 21 23 23 22 22 23 23 25 29 32 35 38 40 43 44 46 47 45 44 40 40 42 42 41 42 48 51 50 45 41 37 30 29 29 27 24 19 16 18
30 25 20 16 20 23 23 23 23 24 27 29 33 35 36 38 39 39 41 44 47 50 53 52 46 47 47 45 46 47 54 52 45 43 38 34 32 31 30 26 20 19 25
22 21 18 16 20 23 22 23 25 27 29 31 32 34 36 37 39 42 45 47 49 51 55 60 64 52 48 52 51 53 55 53 47 44 40 38 34 34 34 30 24 23 27
20 20 18 19 20 21 23 26 27 28 29 30 32 34 36 40 43 47 50 52 54 56 59 60 63 71 60 57 60 61 61 57 56 49 46 43 40 40 38 33 28 28 28
18 18 20 20 21 23 25 26 26 27 30 32 34 36 40 44 48 52 54 57 60 61 62 64 67 69 78 67 62 63 70 69 67 63 54 47 45 45 40 36 34 34 34
23 22 21 21 21 22 24 25 26 28 31 34 36 40 44 50 54 55 53 54 55 57 61 65 66 68 69 75 73 67 73 72 73 71 60 58 51 51 45 40 38 40 40
25 25 23 22 20 22 22 23 25 28 32 35 38 43 49 51 47 45 45 46 46 39 32 37 50 64 67 66 78 75 72 76 62 61 61 62 58 57 49 43 40 44 45
32 29 27 24 22 22 22 23 25 29 33 37 42 47 47 41 40 39 43 34 25 25 28 32 33 34 45 66 66 84 69 64 56 64 66 67 69 61 50 43 36 44 47
35 31 30 26 23 22 22 22 27 31 36 40 44 43 39 37 35 34 25 23 27 28 30 32 33 35 35 43 55 61 67 60 52 59 56 61 65 62 56 36 37 40 45
31 31 30 27 26 24 23 26 29 34 39 43 44 39 37 34 31 27 25 25 26 27 31 37 24 23 32 32 34 40 55 48 46 58 56 64 64 62 36 35 39 49 47
35 33 31 29 28 26 27 28 32 37 41 44 40 37 36 33 27 25 22 22 21 24 31 29 22 22 29 21 23 31 54 37 33 46 60 53 42 29 46 47 41 45 46
39 37 34 31 29 29 27 29 34 38 42 41 37 37 35 30 24 22 20 19 19 20 25 17 21 23 13 14 23 24 36 26 33 38 56 55 47 42 42 43 40 40 43
41 40 37 34 32 30 28 31 34 39 41 38 36 35 29 20 21 16 14 15 14 15 9 12 16 8 12 14 21 24 21 16 29 42 44 40 49 44 41 40 39 39 46
41 40 39 34 32 29 29 31 34 38 37 34 32 27 18 18 17 18 11 9 9 6 3 9 12 18 20 20 29 28 31 34 23 19 23 29 50 50 35 45 43 49 49
43 43 38 34 31 28 28 30 33 34 31 28 25 20 19 20 19 11 11 6 11 5 4 18 19 25 43 31 35 43 35 26 18 22 32 38 34 33 37 47 48 54 52
46 42 37 34 29 26 26 28 31 28 24 23 20 19 17 15 9 4 9 20 13 7 14 23 30 26 30 38 40 36 33 21 23 25 30 36 38 39 42 41 47 49 57
45 41 35 32 28 25 24 27 27 22 21 20 17 15 11 7 5 16 25 18 11 10 19 28 26 31 39 43 37 36 33 32 22 39 29 29 39 41 38 46 47 59 57
46 43 39 33 28 23 22 25 22 18 18 14 12 8 4 8 21 31 21 12 18 23 29 31 41 26 39 35 41 36 34 30 26 32 63 56 52 39 30 44 62 52 51
45 43 37 32 26 22 22 22 18 16 16 8 7 4 6 17 29 29 20 16 23 23 26 34 36 44 32 34 36 41 28 33 32 30 55 52 66 52 38 39 39 42 52
45 41 33 28 23 21 21 19 15 15 10 2 5 6 11 25 30 25 15 18 26 20 22 25 30 37 41 37 33 25 20 12 39 33 56 61 60 59 60 52 52 52 48
44 38 32 26 22 21 19 16 13 12 4 4 8 10 16 30 30 19 14 23 24 18 22 26 30 39 34 39 29 35 19 43 26 25 31 51 67 62 60 57 49 47 37
43 37 30 24 21 19 18 15 12 8 7 9 12 14 19 30 27 15 11 20 26 25 21 24 35 34 32 30 26 38 17 38 41 56 44 54 62 65 55 53 46 41 33
41 35 27 21 19 17 17 15 12 9 13 13 13 15 19 27 23 14 11 20 25 31 26 24 31 34 27 27 26 20 22 38 46 63 64 57 65 65 57 49 40 34 32
Wind_Direction_850mb
174 174 182 191 192 199 208 218 230 242 250 253 254 261 264 266 265 264 263 263 262 259 254 255 257 253 246 238 230 217 204 201 201 191 185 186 187 166 156 154 153 146 134
180 173 181 198 207 214 220 232 242 250 254 259 270 274 273 272 272 269 264 259 257 258 258 257 258 255 248 239 233 217 209 208 203 200 195 189 186 176 174 170 170 170 145
187 185 187 202 219 221 222 233 244 249 257 265 270 274 276 276 273 270 267 263 259 253 253 254 254 257 250 245 234 219 211 210 205 203 200 199 189 184 188 184 176 170 165
182 190 198 213 226 222 228 238 248 253 261 268 273 275 276 276 274 270 267 264 261 256 249 251 252 253 252 242 233 223 216 212 215 216 208 203 192 192 191 189 185 178 167
179 193 202 216 226 231 236 243 249 258 267 272 275 277 277 275 274 273 271 267 265 259 251 244 243 247 251 243 236 229 218 219 222 217 213 207 203 198 195 191 189 179 169
186 195 209 221 226 234 240 249 258 265 270 273 275 277 277 278 278 276 274 271 267 263 258 249 242 244 244 239 234 229 227 226 223 218 215 211 213 206 200 195 185 171 167
199 205 215 224 227 235 247 259 267 272 273 274 277 278 281 281 280 278 276 273 270 265 261 259 253 244 244 241 232 228 225 224 221 219 216 214 216 207 203 193 188 182 178
210 218 222 229 236 244 256 265 272 275 279 282 284 287 287 287 286 285 282 278 273 268 263 257 253 249 244 243 243 235 230 230 229 230 227 217 214 209 202 198 193 190 182
210 222 231 235 241 250 259 268 275 279 281 284 290 293 295 295 295 294 289 283 278 272 266 262 259 256 250 245 239 243 237 232 231 235 222 217 213 212 205 204 201 192 185
223 226 231 237 249 259 266 271 276 279 285 292 297 299 302 302 300 297 293 289 281 278 284 279 265 257 253 246 236 237 241 234 230 230 231 216 213 215 210 205 196 189 184
229 228 234 241 251 258 270 276 281 290 296 301 304 306 305 301 300 303 308 306 308 299 296 290 287 278 265 252 240 230 242 247 228 228 225 224 215 215 204 198 185 185 178
237 235 235 246 256 267 274 279 289 296 300 303 306 307 305 303 305 309 314 312 313 311 311 308 297 276 276 264 249 240 234 246 232 229 220 213 209 207 202 188 183 183 178
243 237 239 250 259 266 269 282 293 299 302 306 309 308 305 305 303 303 306 314 313 309 309 312 308 301 297 275 244 233 224 240 233 228 218 207 199 200 177 186 175 186 179
240 239 240 248 256 262 269 289 297 300 305 310 310 308 306 300 290 293 301 304 311 315 312 325 314 290 296 270 200 217 209 224 235 219 209 199 174 188 191 185 186 185 172
241 241 246 250 256 261 271 289 297 302 307 309 310 310 310 304 291 283 291 308 312 314 324 335 319 315 311 172 172 186 193 211 242 207 181 183 192 182 191 189 186 177 159
240 241 246 252 253 256 272 289 297 303 307 310 311 316 312 314 317 293 287 301 323 323 12 354 343 25 110 133 153 172 174 183 194 196 197 201 190 188 203 178 164 171 169
242 238 245 249 249 254 272 287 296 304 308 309 318 318 325 317 314 298 307 301 334 90 39 27 78 114 127 146 159 167 161 165 174 182 207 205 209 201 213 168 174 171 170
234 234 238 240 239 252 272 287 297 304 308 314 322 315 317 314 307 290 286 296 142 113 11 103 105 125 144 149 156 145 146 143 139 181 189 199 194 196 203 176 181 174 176
229 227 231 230 233 252 270 286 296 303 311 320 315 315 320 318 319 332 109 127 130 108 98 130 136 148 151 152 141 139 140 164 179 178 180 192 200 196 199 182 177 173 162
220 219 223 225 231 252 270 284 295 303 316 320 314 321 330 349 89 120 131 119 109 136 147 142 129 150 142 144 135 128 119 99 127 152 176 181 180 179 179 176 164 153 143
210 211 213 220 233 251 269 283 291 300 321 317 330 351 29 99 124 132 123 108 118 141 146 137 143 151 152 145 145 116 102 98 105 125 118 128 157 139 189 179 142 134 139
208 206 207 217 231 251 267 281 284 297 317 305 6 44 115 129 138 139 123 137 144 150 157 158 159 155 171 158 139 127 93 97 99 108 129 124 130 114 114 126 133 150 154
200 202 205 217 234 249 266 275 277 299 313 332 66 103 130 142 147 147 137 145 160 156 159 159 175 160 155 157 148 153 129 130 109 113 125 137 139 137 136 147 151 156 157
195 195 201 216 234 248 265 264 267 296 292 147 121 126 140 152 154 149 136 140 161 159 164 173 186 179 172 168 176 167 156 164 148 124 134 144 149 145 146 149 154 152 151
191 194 201 216 231 246 260 253 254 279 196 150 134 139 149 161 166 169 167 169 166 172 164 178 191 193 185 189 193 183 169 171 170 154 142 142 145 149 153 150 152 151 150
189 197 207 220 229 244 254 246 241 243 187 167 153 153 160 170 177 192 196 170 164 165 179 184 199 194 207 216 201 208 230 192 177 163 145 138 138 144 150 152 159 159 164